Regional Weather Roundup
Issued by NWS

Home | Current Version | Previous Version | Text Only | Print | Product List | Glossary On
Versions: 1 2 3 4 5 6 7 8 9 10 11 12 13 14 15 16 17 18 19 20 21 22 23 24 25 26 27 28 29 30 31 32 33 34 35 36 37 38 39 40 41 42 43 44 45 46 47 48 49 50
000
ASUS43 KDMX 200606
RWRIA

WEATHER ROUNDUP FOR IOWA
NATIONAL WEATHER SERVICE DES MOINES IA
100 AM CDT FRI OCT 20 2017

NOTE: "FAIR" INDICATES FEW OR NO CLOUDS BELOW 12,000 FEET WITH NO
SIGNIFICANT WEATHER AND/OR OBSTRUCTIONS TO VISIBILITY.

* - THESE STATIONS ARE NOT NWS STATIONS...THUS NOT UNDER NWS
QUALITY CONTROL.  THEY ALSO DO NOT REPORT WEATHER SUCH
AS PRECIPITATION OR FOG.

IAZ001>003-012>014-020>022-031>034-043>046-200700-
   NORTHWEST IOWA

CITY           SKY/WX    TMP DP  RH WIND       PRES   REMARKS
CARROLL *        N/A     75  70  83 S13       29.98S
CHEROKEE *       N/A     60  52  76 S12       29.94S
DENISON *        N/A     61  50  67 S10       29.98S
LE MARS *        N/A     57  52  82 S7        29.91F
ORANGE CITY *    N/A     57  52  82 S8        29.92S
SHELDON *        N/A     61  50  67 S9G16     29.90S
SIOUX CITY       N/A     52  50  93 SE9       29.92S
6HR MIN TEMP:  52; 6HR MAX TEMP:  69;

SPENCER          N/A     53  49  86 S7        29.94S
6HR MIN TEMP:  52; 6HR MAX TEMP:  63;

STORM LAKE *     N/A     57  50  77 S14       29.95F
$$

IAZ055>058-069>071-079>083-090>094-200700-
   SOUTHWEST IOWA

CITY           SKY/WX    TMP DP  RH WIND       PRES   REMARKS
ATLANTIC *       N/A     61  52  72 S10       30.00S
AUDUBON *        N/A     59  54  82 S6        30.00F
CLARINDA *       N/A     57  52  82 S6        30.05S
COUNCIL BLFS *   N/A     64  52  63 S14G22    29.99R
CRESTON *        N/A     59  52  77 S12       30.05S
HARLAN  *        N/A     59  52  77 S9        30.02S
LAMONI           N/A     58  52  80 S9        30.06S
6HR MIN TEMP:  58; 6HR MAX TEMP:  69;

RED OAK *        N/A     59  52  77 S7        30.02R
SHENANDOAH *     N/A     61  52  72 S10G18    30.02S
$$

IAZ047>049-059>061-072>074-084-200700-
   CENTRAL IOWA

CITY           SKY/WX    TMP DP  RH WIND       PRES   REMARKS
AMES             N/A     52  51  97 SE5       30.01S
6HR MIN TEMP:  52; 6HR MAX TEMP:  63;

ANKENY *         N/A     61  52  72 S9        30.03S
BOONE *          N/A     61  52  72 S10       30.00S
CHARITON *       N/A     61  52  72 S10       30.05S
DES MOINES       N/A     59  52  77 S9        30.02S
6HR MIN TEMP:  59; 6HR MAX TEMP:  68;

KNOXVILLE *      N/A     61  50  67 S9        30.03S
MARSHALLTOWN     N/A     57  51  80 S8        30.02S
6HR MIN TEMP:  57; 6HR MAX TEMP:  66;

NEWTON *         N/A     54  50  87 S7        30.04S
PELLA *          N/A     58  51  77 S6        30.06S
PERRY *          N/A     55  53  91 S6        30.01S
$$

IAZ004>006-015-016-023>025-035-036-200700-
   NORTH CENTRAL IOWA

CITY           SKY/WX    TMP DP  RH WIND       PRES   REMARKS
ALGONA *         N/A     57  54  88 S10       29.96S
CLARION *        N/A     57  54  88 S13       29.98F
ESTHERVILLE      N/A     52  51  97 S9        29.93F
6HR MIN TEMP:  51; 6HR MAX TEMP:  64;

FORT DODGE *     N/A     61  52  72 S12       29.98S
MASON CITY       N/A     46  44  93 S6        30.00F
6HR MIN TEMP:  45; 6HR MAX TEMP:  60;

FOREST CITY *    N/A     52  50  93 SE3       29.98F
WEBSTER CITY *   N/A     55  50  82 S7        29.97S
IOWA FALLS *     N/A     55  51  86 S6        30.02S
$$

IAZ007>011-017>019-026>030-037>042-050>054-066-200700-
   NORTHEAST IOWA

CITY           SKY/WX    TMP DP  RH WIND       PRES   REMARKS
CEDAR RAPIDS     N/A     56  50  80 S5        30.06S
6HR MIN TEMP:  55; 6HR MAX TEMP:  63;

CHARLES CITY *   N/A     54  50  87 S6        30.02S
CLINTON *        N/A     56  50  80 SE7       30.10F
DECORAH *        N/A     55  46  71 S7        30.03S
DUBUQUE          N/A     55  49  80 S8        30.08F
6HR MIN TEMP:  54; 6HR MAX TEMP:  60;

MONTICELLO *     N/A     50  48  93 SE6       30.07S
OELWEIN *        N/A     54  50  87 S9        30.05S
WATERLOO         N/A     54  49  83 SE5       30.02F
6HR MIN TEMP:  54; 6HR MAX TEMP:  63;

$$

IAZ064-065-067-068-078-200700-
   EAST CENTRAL IOWA

CITY           SKY/WX    TMP DP  RH WIND       PRES   REMARKS
DAVENPORT        N/A     60  50  69 S9        30.11S
6HR MIN TEMP:  58; 6HR MAX TEMP:  65;

IOWA CITY        N/A     52  49  89 CALM      30.08F
6HR MIN TEMP:  51; 6HR MAX TEMP:  67;

MUSCATINE *      N/A     50  48  93 CALM      30.09S
QUAD CITIES      N/A     60  50  69 S6        30.09S
6HR MIN TEMP:  57; 6HR MAX TEMP:  62;

$$

IAZ062-063-075>077-085>089-095>099-200700-
   SOUTHEAST IOWA

CITY           SKY/WX    TMP DP  RH WIND       PRES   REMARKS
BURLINGTON       N/A     59  52  77 S7        30.09F
6HR MIN TEMP:  59; 6HR MAX TEMP:  65;

FAIRFIELD *      N/A     59  50  72 S8        30.07S
FORT MADISON *   N/A     61  52  72 S8        30.10S
KEOKUK *         N/A     59  50  72 S5        30.09S
OSKALOOSA *      N/A     53  49  87 S7        30.06S
OTTUMWA          N/A     59  51  75 S10       30.05F
6HR MIN TEMP:  58; 6HR MAX TEMP:  64;

WASHINGTON *     N/A     59  52  77 S9        30.08S
$$

ABBREVIATIONS USED IN REMARKS
   TC - TEMPERATURES IN CELSIUS
  WCI - WIND CHILL INDEX
   HX - HEAT INDEX
  VSB - VISIBILITY
$$





USA.gov is the U.S. government's official web portal to all federal, state and local government web resources and services.